Stündliche Wetter Bolshie Orly

Heute, 24 Januar, Sonntag

Zeit Temperatur Niederschläge Wind Luftdruck Luftfeuchtigkeit
00:00 -1°C° 0 mm 4 m/S 739 mmHg 91%
01:00 -1°C° 0 mm 4 m/S 739 mmHg 91%
02:00 -1°C° 0 mm 4 m/S 739 mmHg 91%
03:00 -1°C° 0 mm 4 m/S 738 mmHg 92%
04:00 -1°C° 0 mm 4 m/S 738 mmHg 92%
05:00 -1°C° 0 mm 4 m/S 737 mmHg 93%
06:00 0°C° 0 mm 3 m/S 737 mmHg 94%
07:00 +1°C° 0 mm 3 m/S 737 mmHg 96%
08:00 +1°C° 0 mm 3 m/S 737 mmHg 97%
09:00 +2°C° 0 mm 3 m/S 737 mmHg 97%
10:00 +2°C° 0 mm 3 m/S 736 mmHg 97%
11:00 +2°C° 0 mm 3 m/S 736 mmHg 97%
12:00 +2°C° 0.1 mm 3 m/S 735 mmHg 97%
13:00 +2°C° 0.1 mm 3 m/S 734 mmHg 98%
14:00 +2°C° 0.1 mm 3 m/S 734 mmHg 98%
15:00 +3°C° 0.9 mm 2 m/S 733 mmHg 98%
16:00 +3°C° 0.9 mm 2 m/S 733 mmHg 98%
17:00 +3°C° 0.9 mm 2 m/S 733 mmHg 98%
18:00 +3°C° 1 mm 2 m/S 733 mmHg 98%
19:00 +1°C° 1 mm 3 m/S 733 mmHg 98%
20:00 +1°C° 1 mm 3 m/S 733 mmHg 98%
21:00 0°C° 0.9 mm 4 m/S 733 mmHg 98%
22:00 0°C° 0.9 mm 5 m/S 734 mmHg 97%
23:00 -1°C° 0.9 mm 6 m/S 734 mmHg 96%

Morgen, 25 Januar, Montag

Zeit Temperatur Niederschläge Wind Luftdruck Luftfeuchtigkeit
00:00 -1°C° 0.3 mm 6 m/S 735 mmHg 95%
01:00 0°C° 0.3 mm 5 m/S 736 mmHg 94%
02:00 -1°C° 0.3 mm 5 m/S 737 mmHg 93%
03:00 -1°C° 0 mm 4 m/S 737 mmHg 93%
04:00 -1°C° 0 mm 4 m/S 738 mmHg 93%
05:00 -1°C° 0 mm 3 m/S 738 mmHg 93%
06:00 -1°C° 0 mm 2 m/S 739 mmHg 93%
07:00 -1°C° 0 mm 2 m/S 739 mmHg 94%
08:00 +1°C° 0 mm 1 m/S 739 mmHg 94%
09:00 +1°C° 0 mm 1 m/S 740 mmHg 93%
10:00 +1°C° 0 mm 1 m/S 740 mmHg 92%
11:00 +2°C° 0 mm 1 m/S 740 mmHg 91%
12:00 +2°C° 0 mm 1 m/S 740 mmHg 91%
13:00 +1°C° 0 mm 2 m/S 739 mmHg 90%
14:00 +2°C° 0 mm 2 m/S 739 mmHg 90%
15:00 0°C° 0 mm 3 m/S 739 mmHg 91%
16:00 0°C° 0 mm 3 m/S 738 mmHg 92%
17:00 -1°C° 0 mm 4 m/S 738 mmHg 93%
18:00 -1°C° 0.2 mm 5 m/S 737 mmHg 94%
19:00 -1°C° 0.2 mm 5 m/S 737 mmHg 95%
20:00 -1°C° 0.2 mm 6 m/S 736 mmHg 95%
21:00 -1°C° 2 mm 6 m/S 735 mmHg 96%
22:00 -1°C° 2 mm 7 m/S 734 mmHg 96%
23:00 -1°C° 2 mm 7 m/S 733 mmHg 96%

übermorgen, 26 Januar, Dienstag

Zeit Temperatur Niederschläge Wind Luftdruck Luftfeuchtigkeit
00:00 +1°C° 2.2 mm 6 m/S 732 mmHg 96%
01:00 +1°C° 2.2 mm 6 m/S 731 mmHg 96%
02:00 +1°C° 2.2 mm 5 m/S 731 mmHg 97%
03:00 +1°C° 1.4 mm 5 m/S 730 mmHg 97%
04:00 +1°C° 1.4 mm 4 m/S 730 mmHg 97%
05:00 +1°C° 1.4 mm 4 m/S 729 mmHg 97%
06:00 +1°C° 1.3 mm 4 m/S 729 mmHg 97%
07:00 +1°C° 1.3 mm 4 m/S 729 mmHg 96%
08:00 +1°C° 1.3 mm 4 m/S 729 mmHg 96%
09:00 +1°C° 0.6 mm 3 m/S 729 mmHg 94%
10:00 +1°C° 0.6 mm 3 m/S 730 mmHg 91%
11:00 +2°C° 0.6 mm 2 m/S 730 mmHg 89%
12:00 +2°C° 0.1 mm 2 m/S 730 mmHg 89%
13:00 +2°C° 0.1 mm 2 m/S 730 mmHg 88%
14:00 +2°C° 0.1 mm 2 m/S 731 mmHg 88%
15:00 +1°C° 0.3 mm 3 m/S 731 mmHg 91%
16:00 -1°C° 0.3 mm 4 m/S 732 mmHg 94%
17:00 -2°C° 0.3 mm 4 m/S 732 mmHg 97%
18:00 -2°C° 0.8 mm 5 m/S 733 mmHg 97%
19:00 -3°C° 0.8 mm 6 m/S 733 mmHg 96%
20:00 -3°C° 0.8 mm 7 m/S 734 mmHg 95%
21:00 -5°C° 0.5 mm 8 m/S 734 mmHg 95%
22:00 -5°C° 0.5 mm 8 m/S 735 mmHg 95%
23:00 -5°C° 0.5 mm 8 m/S 735 mmHg 94%

27 Januar, Mittwoch

Zeit Temperatur Niederschläge Wind Luftdruck Luftfeuchtigkeit
00:00 -5°C° 0.5 mm 8 m/S 736 mmHg 94%
01:00 -5°C° 0.5 mm 8 m/S 736 mmHg 94%
02:00 -5°C° 0.5 mm 8 m/S 736 mmHg 94%
03:00 -5°C° 0.5 mm 8 m/S 737 mmHg 94%
04:00 -5°C° 0.5 mm 8 m/S 737 mmHg 94%
05:00 -5°C° 0.5 mm 8 m/S 737 mmHg 94%
06:00 -5°C° 0.4 mm 8 m/S 738 mmHg 94%
07:00 -5°C° 0.4 mm 8 m/S 738 mmHg 94%
08:00 -4°C° 0.4 mm 7 m/S 739 mmHg 94%
09:00 -4°C° 0.3 mm 7 m/S 739 mmHg 94%
10:00 -4°C° 0.3 mm 7 m/S 740 mmHg 93%
11:00 -4°C° 0.3 mm 7 m/S 741 mmHg 93%
12:00 -4°C° 0.1 mm 7 m/S 741 mmHg 92%
13:00 -4°C° 0.1 mm 7 m/S 741 mmHg 91%
14:00 -4°C° 0.1 mm 7 m/S 742 mmHg 90%
15:00 -4°C° 0 mm 7 m/S 742 mmHg 89%
16:00 -4°C° 0 mm 6 m/S 743 mmHg 88%
17:00 -4°C° 0 mm 6 m/S 743 mmHg 87%
18:00 -4°C° 0 mm 5 m/S 743 mmHg 88%
19:00 -4°C° 0 mm 5 m/S 744 mmHg 88%
20:00 -3°C° 0 mm 4 m/S 744 mmHg 89%
21:00 -4°C° 0 mm 4 m/S 744 mmHg 90%
22:00 -4°C° 0 mm 4 m/S 745 mmHg 90%
23:00 -4°C° 0 mm 4 m/S 745 mmHg 91%

28 Januar, Donnerstag

Zeit Temperatur Niederschläge Wind Luftdruck Luftfeuchtigkeit
00:00 -4°C° 0 mm 4 m/S 745 mmHg 91%
01:00 -4°C° 0 mm 4 m/S 745 mmHg 90%
02:00 -2°C° 0 mm 3 m/S 745 mmHg 90%
03:00 -4°C° 0 mm 3 m/S 745 mmHg 91%
04:00 -4°C° 0 mm 3 m/S 745 mmHg 92%
05:00 -4°C° 0 mm 3 m/S 745 mmHg 93%
06:00 -5°C° 0 mm 3 m/S 745 mmHg 93%
07:00 -5°C° 0 mm 3 m/S 746 mmHg 94%
08:00 -6°C° 0 mm 3 m/S 746 mmHg 94%
09:00 -5°C° 0 mm 3 m/S 746 mmHg 93%
10:00 -5°C° 0 mm 3 m/S 746 mmHg 92%
11:00 -4°C° 0 mm 3 m/S 746 mmHg 91%
12:00 -4°C° 0 mm 3 m/S 746 mmHg 90%
13:00 -2°C° 0 mm 3 m/S 745 mmHg 89%
14:00 -2°C° 0 mm 3 m/S 745 mmHg 88%
15:00 -2°C° 0 mm 3 m/S 745 mmHg 90%
16:00 -3°C° 0 mm 2 m/S 745 mmHg 92%
17:00 -3°C° 0 mm 2 m/S 745 mmHg 94%
18:00 -3°C° 0 mm 2 m/S 745 mmHg 95%
19:00 -4°C° 0 mm 2 m/S 745 mmHg 95%
20:00 -4°C° 0 mm 2 m/S 745 mmHg 96%

29 Januar, Freitag

Zeit Temperatur Niederschläge Wind Luftdruck Luftfeuchtigkeit
Mehr zeigen

Wir brauchen deine Erlaubnis

Meteoprog und unser Service Anbieter werden persönliche Daten aufbewahren, so wie Cookies, Geräte Bezeichnung oder ähnliche Technologien von deinem Gerät und Prozess, so wie Persönliche Daten Inhalte und Werbungen, genauso wie social Media und den Verkehr zu analysieren.

  • Aufbewahrung und/oder Zugang zu deiner Geräte Informationen.

    Cookies, Geräte Bezeichnung oder andere Informationen, können aufbewahrt oder Zugang zu deinem Gerät erhalten, für den Grund, der oben angegeben wird.

  • Personalisierte Werbung und Inhalte, Messungen, Einblick in das Publikum und Produkt Entwicklung.

    Werbungen und Inhalte können personalisiert werden, basierend auf ein Profil. Mehr Daten können besser personalisierte Werbungen und Inhalte hinzufügen. Werbung und Inhalte können gezeigt und gemessen werden. Einblicke über das Publikum, welche die Werbung gesehen haben und den Inhalt, können abgeleitet werden. So wie Daten können genutzt werden, um es zu verbessern oder die Benutzer Erfahrung zu verbessern das System und die Software.

Wenn du “Ich stimme zu” klickst, erlaubst du uns, die Cookies zu benutzen die Geräte Bezeichnung, den Web oder ähnliche Technologien zu benutzen. Deine Settings, können in deinem Gerät bei deinem Browser geändert werden.

Für den bestimmten Zweck, berechtigten Interessen beruhen darauf, mehr als auf den Inhalt. Du kannst mehr darüber in unseren Privaten und Cookie Politik lesen.